Regional Weather Roundup
Issued by NWS

Home | Current Version | Previous Version | Text Only | Print | Product List | Glossary On
Versions: 1 2 3 4 5 6 7 8 9 10 11 12 13 14 15 16 17 18 19 20 21 22 23 24 25 26 27 28 29 30 31 32 33 34 35 36 37 38 39 40 41 42 43 44 45 46 47 48 49 50
000
ASUS44 KFWD 251103
RWRTX
NORTH TEXAS HOURLY WEATHER ROUNDUP
NATIONAL WEATHER SERVICE FORT WORTH TX
600 AM CDT SAT APR 25 2015

NOTE: "FAIR" INDICATES FEW OR NO CLOUDS BELOW 12,000 FEET WITH NO
SIGNIFICANT WEATHER AND/OR OBSTRUCTIONS TO VISIBILITY.

TXZ118-119-251200-
DALLAS/FORT WORTH METROPLEX

CITY           SKY/WX    TMP DP  RH WIND       PRES   REMARKS
DFW AIRPORT    PTCLDY    57  56  96 SW9       29.68S
DALLAS LOVE    PTCLDY    61  59  93 CALM      29.69S
FTW MEACHAM    CLEAR     61  55  81 W6        29.69S
DAL-EXECUTIVE  CLEAR     65  58  78 SW8       29.69S
FTW-ALLIANCE   PTCLDY    60  54  80 W6        29.68S
FTW-NAS-JRB      N/A    N/A N/A N/A MISG        N/A
FTW-SPINKS     CLEAR     63  57  81 SW6       29.72S
ARLINGTON      PTCLDY    56  52  86 SW5       29.70R
GRAND PRAIRIE  CLEAR     59  59 100 SW6       29.71S
MESQUITE       CLEAR     59  58  98 CALM      29.70R
LANCASTER      PTCLDY    58  56  94 CALM      29.71S
$$

TXZ091>094-102>105-117-120-121-131>134-251200-
NORTH CENTRAL TEXAS

CITY           SKY/WX    TMP DP  RH WIND       PRES   REMARKS
SHRMAN/DENISON CLEAR     61  60  97 SW12      29.67S
GAINESVILLE    CLEAR     58  55  88 SW5       29.69S
BOWIE          CLEAR     57  49  74 SW7       29.68F
BRIDGEPORT     CLEAR     58  56  94 SW5       29.71F
DECATUR        CLEAR     60  56  87 SW7       29.70S
DENTON         CLEAR     58  56  93 SW7       29.68S
MCKINNEY       PTCLDY    55  55 100 CALM      29.69R FOG
GREENVILLE     CLEAR     59  59 100 CALM      29.69S
ROCKWALL       CLEAR     61  61 100 S10       29.68S
TERRELL        PTCLDY    62  60  93 S5        29.71R
WAXAHACHIE     PTCLDY    61  61 100 CALM      29.72S
GRANBURY         N/A     65  55  70 SW10      29.73S
$$

TXZ083>090-098>101-113>116-127>130-139>142-154-155-251200-
WESTERN NORTH TEXAS

CITY           SKY/WX    TMP DP  RH WIND       PRES   REMARKS
WICHITA FALLS  CLEAR     56  44  64 SW15      29.65S
WF-KICKAPOO    CLEAR     57  47  69 SW7       29.68S
VERNON         CLEAR     53  40  60 W9        29.67S
ABILENE        CLEAR     59  37  44 SW3       29.78R
ABILENE-DYESS  CLEAR     60  40  46 W12       29.77R
BRECKENRIDGE   CLEAR     58  47  65 SW7       29.74S
GRAHAM         CLEAR     56  51  85 CALM      29.71R
MINERAL WELLS  CLEAR     57  54  89 S3        29.70S
STEPHENVILLE   CLEAR     62  57  83 SW3       29.78S
COMANCHE       CLEAR     63  55  76 SW9       29.77S
COLEMAN        CLEAR     57  47  68 W6        29.80R
BRADY          CLEAR     61  61 100 SW6       29.82R
$$

TXZ143>147-156>162-174-175-251200-
CENTRAL TEXAS

CITY           SKY/WX    TMP DP  RH WIND       PRES   REMARKS
WACO           CLOUDY    64  64 100 CALM      29.74R FOG
WACO-MCGREGOR  CLOUDY    66  61  82 SW5       29.74R
HILLSBORO      MOCLDY    59  57  92 S3        29.73R
CORSICANA      CLOUDY    67  65  93 SW5       29.73R FOG
MEXIA          CLOUDY    72  71  99 S6        29.72R FOG
HEARNE         CLOUDY    72  71  98 S9        29.80R THUNDER FOG
CAMERON        CLOUDY    74  73  94 S10       29.76R
TEMPLE         CLOUDY    70  64  83 S5        29.74R
KILLEEN        CLOUDY    72  68  88 SE6       29.75R
KILLEEN-SKYLRK CLOUDY    70  64  83 SW5       29.76R
FORT HOOD      CLOUDY    68  68 100 S3        29.75R
GATESVILLE     MOCLDY    70  68  94 W8        29.77R FOG
LAMPASAS       MOCLDY    71  68  91 W7        29.77R
$$

TXZ095>097-106>112-122>126-135>138-148>153-164>167-251200-
EAST TEXAS

CITY           SKY/WX    TMP DP  RH WIND       PRES   REMARKS
PARIS          PTCLDY    61  57  88 MISG      29.68F
SULPHUR SPRNGS PTCLDY    64  62  96 SW9       29.66R
MOUNT PLEASANT CLOUDY   N/A N/A N/A S3        29.71S
GILMER         CLOUDY    70  70  99 S8        29.70S FOG
TYLER          CLOUDY    72  70  93 SW8       29.71S FOG
LONGVIEW       CLOUDY    72  70  93 S12       29.69F
MARSHALL       CLOUDY    71  69  93 S5        29.71F
PALESTINE      CLOUDY    72  72  99 SE3       29.73S FOG
JACKSONVILLE   FOG       72  71  96 S8        29.75S VSB 1
HENDERSON      CLOUDY    71  71 100 S7        29.72F
NACOGDOCHES    CLOUDY    73  70  88 SW5       29.74S
LUFKIN         CLOUDY    76  72  87 CALM      29.73S FOG
$$

SUPPLEMENTAL OBSERVATIONS (CENTRAL)

CITY           SKY/WX    TMP DP  RH WIND       PRES   REMARKS
$$

SUPPLEMENTAL OBSERVATIONS (WEST)

CITY           SKY/WX    TMP DP  RH WIND       PRES   REMARKS
$$

SUPPLEMENTAL OBSERVATIONS (EAST)

CITY           SKY/WX    TMP DP  RH WIND       PRES   REMARKS
$$

SUPPLEMENTAL OBSERVATIONS ARE A COLLECTION OF AUTOMATED INSTRUMENTS
THAT ARE MAINTAINED BY A VARIETY OF FEDERAL AND STATE AGENCIES.
CERTAIN ELEMENTS...SUCH AS HUMIDITY VALUES AND SUSTAINED WIND
SPEEDS...MAY BE APPROXIMATED.



USA.gov is the U.S. government's official web portal to all federal, state and local government web resources and services.